College Station, TX

1:01 AM CDT on April 25, 2018 (GMT -0500)
Easterwood

Weather History for KCLL - July, 2013

Change the Weather History Date:

Wednesday, July 24, 2013

  Actual Average Record
Temperature  
Mean Temperature 86 °F 85 °F  
Max Temperature 95 °F 96 °F 110 °F (1903)
Min Temperature 76 °F 75 °F 62 °F (1915)
Degree Days  
Heating Degree Days 0 0  
Month to date heating degree days 0 0  
Since 1 June heating degree days 0 0  
Since 1 July heating degree days 0 0  
Cooling Degree Days 21 20  
Month to date cooling degree days 472 469  
Year to date cooling degree days 1620 1573  
Since 1 June cooling degree days 1056 985  
Growing Degree Days 35 (Base 50)    
Moisture  
Dew Point 72 °F    
Average Humidity 69    
Maximum Humidity 94    
Minimum Humidity 43    
Precipitation  
Precipitation 0.00 in 0.06 in 1.38 in (1976)
Month to date precipitation 1.43 1.71  
Year to date precipitation 18.95 22.41  
Sea Level Pressure  
Sea Level Pressure 29.93 in    
Wind  
Wind Speed 6 mph (SSW)    
Max Wind Speed 17 mph    
Max Gust Speed 23 mph    
Visibility 10 miles    
Events      
T = Trace of Precipitation, MM = Missing Value Source: NWS Daily Summary

Daily Weather History Graph

Daily Weather History Graph

Search for Another Location

Airport or City:

Astronomy

Jul. 24, 2013 Rise Set
Actual Time 6:38 AM CDT 8:24 PM CDT
Civil Twilight 6:12 AM CDT 8:51 PM CDT
Nautical Twilight 5:40 AM CDT 9:23 PM CDT
Astronomical Twilight 5:06 AM CDT 9:57 PM CDT
Moon 9:47 PM CDT (7/24) 8:46 AM CDT (7/24)
Length of Visible Light 14h 39m
Length of Day
13h 46m
Waning Gibbous, 94% of the Moon is Illuminated
Jul 24
Waning Gibbous
Jul 29
Last Quarter
Aug 6
New
Aug 14
First Quarter
Aug 20
Full

Hourly Weather History & Observations

Time (CDT) Temp. Heat Index Dew Point Humidity Pressure Visibility Wind Dir Wind Speed Gust Speed Precip Events Conditions
12:36 AM 80.6 °F 85.4 °F 73.4 °F 79% 29.95 in 10.0 mi South 9.2 mph - N/A   Mostly Cloudy
12:53 AM 80.1 °F 84.5 °F 73.9 °F 81% 29.92 in 10.0 mi South 10.4 mph - N/A   Mostly Cloudy
1:48 AM 78.8 °F - 75.2 °F 89% 29.92 in 10.0 mi South 9.2 mph - N/A   Mostly Cloudy
1:53 AM 79.0 °F - 75.0 °F 88% 29.91 in 10.0 mi South 9.2 mph - N/A   Mostly Cloudy
2:53 AM 78.1 °F - 73.9 °F 87% 29.92 in 10.0 mi SSW 8.1 mph - N/A   Overcast
3:18 AM 78.8 °F - 73.4 °F 83% 29.93 in 10.0 mi SSW 9.2 mph - N/A   Scattered Clouds
3:53 AM 78.1 °F - 73.9 °F 87% 29.93 in 10.0 mi SSW 9.2 mph - N/A   Clear
4:53 AM 77.0 °F - 73.9 °F 90% 29.93 in 10.0 mi South 6.9 mph - N/A   Clear
5:53 AM 77.0 °F - 73.9 °F 90% 29.95 in 10.0 mi South 4.6 mph - N/A   Scattered Clouds
6:53 AM 75.9 °F - 73.9 °F 94% 29.97 in 8.0 mi SSW 3.5 mph - N/A   Scattered Clouds
7:18 AM 75.2 °F - 73.4 °F 94% 29.98 in 8.0 mi South 4.6 mph - N/A   Mostly Cloudy
7:53 AM 78.1 °F - 73.9 °F 87% 29.96 in 9.0 mi SSW 6.9 mph - N/A   Mostly Cloudy
8:53 AM 81.0 °F 86.2 °F 73.9 °F 79% 29.97 in 10.0 mi SW 9.2 mph - N/A   Mostly Cloudy
9:30 AM 82.4 °F 88.2 °F 73.4 °F 74% 29.98 in 10.0 mi SSW 10.4 mph - N/A   Scattered Clouds
9:53 AM 82.9 °F 88.8 °F 73.0 °F 72% 29.97 in 10.0 mi SSW 17.3 mph - N/A   Clear
10:53 AM 86.0 °F 93.0 °F 73.0 °F 65% 29.99 in 10.0 mi SSW 11.5 mph - N/A   Partly Cloudy
11:53 AM 88.0 °F 94.7 °F 72.0 °F 59% 30.00 in 10.0 mi SW 10.4 mph 19.6 mph N/A   Partly Cloudy
12:53 PM 89.1 °F 96.0 °F 72.0 °F 57% 29.98 in 10.0 mi Variable 4.6 mph - N/A   Scattered Clouds
1:53 PM 91.0 °F 97.6 °F 71.1 °F 52% 29.95 in 10.0 mi WSW 8.1 mph - N/A   Scattered Clouds
2:53 PM 93.0 °F 100.7 °F 72.0 °F 50% 29.91 in 10.0 mi SW 5.8 mph - N/A   Partly Cloudy
3:53 PM 93.9 °F 100.3 °F 70.0 °F 46% 29.89 in 10.0 mi SSW 8.1 mph - N/A   Clear
4:53 PM 93.9 °F 100.3 °F 70.0 °F 46% 29.87 in 10.0 mi SSW 8.1 mph - N/A   Clear
5:53 PM 95.0 °F 100.7 °F 69.1 °F 43% 29.87 in 10.0 mi SSW 4.6 mph - N/A   Clear
6:53 PM 93.9 °F 98.6 °F 68.0 °F 43% 29.88 in 10.0 mi Calm Calm - N/A   Clear
7:53 PM 93.0 °F 97.4 °F 68.0 °F 44% 29.88 in 10.0 mi Calm Calm - N/A   Clear
8:53 PM 88.0 °F 92.9 °F 70.0 °F 55% 29.89 in 10.0 mi SE 4.6 mph - N/A   Clear
9:53 PM 87.1 °F 92.8 °F 71.1 °F 59% 29.91 in 10.0 mi SSE 4.6 mph - N/A   Clear
10:53 PM 84.9 °F 90.1 °F 71.1 °F 63% 29.92 in 10.0 mi Calm Calm - N/A   Clear
11:53 PM 84.0 °F 89.0 °F 71.1 °F 65% 29.94 in 10.0 mi SSE 4.6 mph - N/A   Clear